Location: Edelsbach
(47.0167°N, 15.6000°E)
Time: 00:04:03
(UTC+00:00)

Cosmos 1833 Rocket - Pass Details

Date: 08 August 2020
Orbit: 831 x 841 km, 71.0° (Epoch: 23 September)

Event Time Altitude Azimuth Distance (km) Brightness Sun altitude
Rises 20:53:39 0° 235° (SW) 3,368 5.8 -20.8°
Reaches altitude 10° 20:56:18 10° 245° (WSW) 2,440 5.2 -21.0°
Maximum altitude 21:01:20 33° 309° (NW) 1,369 4.4 -21.5°
Drops below altitude 10° 21:06:24 10° 13° (NNE) 2,458 5.7 -21.9°
Sets 21:09:07 0° 23° (NNE) 3,398 6.4 -22.2°
